Hourly Weather Holodily

Today, 13 April, Tuesday

Time Temperature Precipitation Wind Pressure Humidity
00:00 +10°C° 0.3 mm 1 mps 748 mmHg 92%
01:00 +10°C° 0.3 mm 1 mps 748 mmHg 93%
02:00 +10°C° 0.3 mm 1 mps 747 mmHg 95%
03:00 +10°C° 0 mm 1 mps 747 mmHg 95%
04:00 +10°C° 0 mm 1 mps 747 mmHg 95%
05:00 +10°C° 0 mm 1 mps 747 mmHg 95%
06:00 +11°C° 0 mm 1 mps 747 mmHg 91%
07:00 +11°C° 0 mm 1 mps 747 mmHg 87%
08:00 +12°C° 0 mm 1 mps 747 mmHg 81%
09:00 +14°C° 0 mm 1 mps 747 mmHg 77%
10:00 +15°C° 0 mm 2 mps 747 mmHg 73%
11:00 +16°C° 0 mm 2 mps 747 mmHg 70%
12:00 +16°C° 0.1 mm 3 mps 747 mmHg 68%
13:00 +17°C° 0.1 mm 4 mps 746 mmHg 66%
14:00 +17°C° 0 mm 4 mps 746 mmHg 66%
15:00 +15°C° 0.1 mm 4 mps 746 mmHg 70%
16:00 +14°C° 0.1 mm 3 mps 746 mmHg 75%
17:00 +13°C° 0.1 mm 3 mps 745 mmHg 79%
18:00 +13°C° 0.1 mm 2 mps 745 mmHg 83%
19:00 +13°C° 0.1 mm 2 mps 745 mmHg 87%
20:00 +12°C° 0.1 mm 2 mps 745 mmHg 91%
21:00 +12°C° 0.1 mm 2 mps 745 mmHg 92%
22:00 +10°C° 0.1 mm 2 mps 745 mmHg 94%
23:00 +10°C° 0.1 mm 2 mps 745 mmHg 95%

Tomorrow, 14 April, Wednesday

Time Temperature Precipitation Wind Pressure Humidity
00:00 +10°C° 0.1 mm 2 mps 745 mmHg 95%
01:00 +10°C° 0.1 mm 2 mps 744 mmHg 95%
02:00 +10°C° 0.1 mm 1 mps 744 mmHg 96%
03:00 +10°C° 0 mm 1 mps 744 mmHg 96%
04:00 +10°C° 0 mm 1 mps 744 mmHg 96%
05:00 +10°C° 0 mm 1 mps 744 mmHg 96%
06:00 +11°C° 0 mm 1 mps 744 mmHg 94%
07:00 +10°C° 0 mm 2 mps 744 mmHg 92%
08:00 +10°C° 0 mm 2 mps 744 mmHg 90%
09:00 +12°C° 0.1 mm 2 mps 744 mmHg 86%
10:00 +11°C° 0.1 mm 3 mps 744 mmHg 82%
11:00 +12°C° 0.1 mm 3 mps 744 mmHg 78%
12:00 +13°C° 0.1 mm 3 mps 744 mmHg 72%
13:00 +13°C° 0.1 mm 3 mps 744 mmHg 67%
14:00 +14°C° 0.1 mm 3 mps 744 mmHg 61%
15:00 +15°C° 0 mm 2 mps 744 mmHg 61%
16:00 +15°C° 0 mm 2 mps 744 mmHg 61%
17:00 +15°C° 0 mm 1 mps 744 mmHg 61%
18:00 +14°C° 0 mm 1 mps 744 mmHg 67%
19:00 +12°C° 0 mm 1 mps 744 mmHg 73%
20:00 +11°C° 0 mm 1 mps 744 mmHg 79%
21:00 +10°C° 0.1 mm 2 mps 744 mmHg 83%
22:00 +9°C° 0.1 mm 2 mps 744 mmHg 87%
23:00 +9°C° 0.1 mm 2 mps 744 mmHg 90%

Day after tomorrow, 15 April, Thursday

Time Temperature Precipitation Wind Pressure Humidity
00:00 +8°C° 0.1 mm 3 mps 744 mmHg 95%
01:00 +8°C° 0.1 mm 3 mps 744 mmHg 96%
02:00 +8°C° 0.1 mm 3 mps 744 mmHg 96%
03:00 +8°C° 0.1 mm 3 mps 744 mmHg 96%
04:00 +8°C° 0.1 mm 3 mps 744 mmHg 96%
05:00 +8°C° 0.1 mm 3 mps 744 mmHg 97%
06:00 +9°C° 0 mm 2 mps 743 mmHg 93%
07:00 +10°C° 0 mm 2 mps 743 mmHg 92%
08:00 +10°C° 0 mm 2 mps 743 mmHg 90%
09:00 +12°C° 0.1 mm 2 mps 743 mmHg 84%
10:00 +13°C° 0.1 mm 2 mps 743 mmHg 78%
11:00 +13°C° 0.1 mm 3 mps 743 mmHg 73%
12:00 +7°C° 0.3 mm 4 mps 744 mmHg 94%
13:00 +7°C° 0.3 mm 4 mps 744 mmHg 92%
14:00 +8°C° 0.3 mm 5 mps 744 mmHg 90%
15:00 +8°C° 0.4 mm 5 mps 744 mmHg 90%
16:00 +7°C° 0.4 mm 6 mps 744 mmHg 91%
17:00 +7°C° 0.4 mm 6 mps 744 mmHg 91%
18:00 +7°C° 0.5 mm 6 mps 744 mmHg 91%
19:00 +5°C° 0.5 mm 6 mps 744 mmHg 91%
20:00 +5°C° 0.5 mm 6 mps 744 mmHg 92%
21:00 +5°C° 0.5 mm 6 mps 744 mmHg 91%
22:00 +5°C° 0.5 mm 6 mps 744 mmHg 91%
23:00 +4°C° 0.5 mm 6 mps 744 mmHg 90%

16 April, Friday

Time Temperature Precipitation Wind Pressure Humidity
00:00 +4°C° 0 mm 6 mps 744 mmHg 90%
01:00 +4°C° 0 mm 6 mps 744 mmHg 91%
02:00 +4°C° 0 mm 6 mps 744 mmHg 91%
03:00 +4°C° 0.6 mm 6 mps 744 mmHg 91%
04:00 +4°C° 0.6 mm 6 mps 744 mmHg 91%
05:00 +4°C° 0.6 mm 6 mps 744 mmHg 92%
06:00 +4°C° 0.1 mm 6 mps 744 mmHg 91%
07:00 +5°C° 0.1 mm 5 mps 744 mmHg 91%
08:00 +5°C° 0.1 mm 5 mps 744 mmHg 91%
09:00 +6°C° 0.1 mm 5 mps 744 mmHg 89%
10:00 +7°C° 0.1 mm 6 mps 745 mmHg 87%
11:00 +7°C° 0.1 mm 6 mps 745 mmHg 84%
12:00 +7°C° 0.8 mm 5 mps 745 mmHg 86%
13:00 +7°C° 0.8 mm 5 mps 745 mmHg 87%
14:00 +7°C° 0.8 mm 5 mps 745 mmHg 89%
15:00 +8°C° 0.1 mm 5 mps 745 mmHg 87%
16:00 +9°C° 0.1 mm 5 mps 745 mmHg 85%
17:00 +9°C° 0.1 mm 5 mps 745 mmHg 83%
18:00 +9°C° 0.5 mm 5 mps 745 mmHg 86%
19:00 +8°C° 0.5 mm 5 mps 746 mmHg 89%
20:00 +8°C° 0.5 mm 5 mps 746 mmHg 92%
21:00 +8°C° 0.7 mm 5 mps 746 mmHg 91%
22:00 +7°C° 0.7 mm 5 mps 746 mmHg 91%
23:00 +7°C° 0.7 mm 6 mps 746 mmHg 91%

17 April, Saturday

Time Temperature Precipitation Wind Pressure Humidity
00:00 +7°C° 0 mm 5 mps 746 mmHg 91%
01:00 +7°C° 0 mm 5 mps 746 mmHg 91%
02:00 +7°C° 0 mm 5 mps 747 mmHg 92%
03:00 +6°C° 0 mm 5 mps 747 mmHg 91%
04:00 +6°C° 0 mm 4 mps 747 mmHg 91%
05:00 +6°C° 0 mm 4 mps 747 mmHg 91%
06:00 +6°C° 0 mm 4 mps 748 mmHg 90%
07:00 +6°C° 0 mm 5 mps 748 mmHg 88%
08:00 +7°C° 0 mm 5 mps 749 mmHg 87%
09:00 +7°C° 0 mm 5 mps 749 mmHg 85%
10:00 +8°C° 0 mm 5 mps 749 mmHg 82%
11:00 +10°C° 0 mm 4 mps 749 mmHg 80%
12:00 +10°C° 0 mm 4 mps 750 mmHg 81%
13:00 +10°C° 0 mm 4 mps 750 mmHg 82%
14:00 +10°C° 0 mm 4 mps 750 mmHg 82%
15:00 +11°C° 0 mm 4 mps 750 mmHg 80%
16:00 +10°C° 0 mm 5 mps 750 mmHg 77%
17:00 +12°C° 0 mm 5 mps 749 mmHg 75%
18:00 +10°C° 0 mm 5 mps 749 mmHg 75%
19:00 +10°C° 0 mm 5 mps 749 mmHg 74%
20:00 +10°C° 0 mm 6 mps 750 mmHg 74%
21:00 +9°C° 0.2 mm 6 mps 750 mmHg 73%
22:00 +9°C° 0.2 mm 6 mps 750 mmHg 73%
23:00 +8°C° 0.2 mm 6 mps 750 mmHg 73%

18 April, Sunday

Time Temperature Precipitation Wind Pressure Humidity
00:00 +7°C° 0 mm 6 mps 750 mmHg 74%
01:00 +7°C° 0 mm 5 mps 750 mmHg 76%
02:00 +6°C° 0 mm 5 mps 750 mmHg 77%
03:00 +6°C° 0 mm 5 mps 750 mmHg 77%
04:00 +5°C° 0 mm 5 mps 751 mmHg 77%
05:00 +5°C° 0 mm 5 mps 751 mmHg 77%
06:00 +5°C° 0.1 mm 4 mps 751 mmHg 77%
07:00 +6°C° 0.1 mm 4 mps 751 mmHg 77%
08:00 +6°C° 0.1 mm 4 mps 751 mmHg 77%
09:00 +7°C° 0.1 mm 4 mps 752 mmHg 76%
10:00 +7°C° 0.1 mm 4 mps 752 mmHg 75%
11:00 +9°C° 0.1 mm 3 mps 752 mmHg 74%
12:00 +10°C° 0 mm 3 mps 752 mmHg 71%
13:00 +12°C° 0 mm 3 mps 752 mmHg 68%
14:00 +13°C° 0 mm 3 mps 752 mmHg 65%
15:00 +13°C° 0.1 mm 4 mps 752 mmHg 67%
16:00 +12°C° 0.1 mm 4 mps 752 mmHg 69%
17:00 +12°C° 0.1 mm 4 mps 752 mmHg 70%
18:00 +11°C° 0 mm 4 mps 752 mmHg 74%
19:00 +10°C° 0 mm 4 mps 752 mmHg 77%
20:00 +8°C° 0 mm 4 mps 752 mmHg 80%
21:00 +9°C° 0 mm 3 mps 752 mmHg 82%
22:00 +8°C° 0 mm 3 mps 752 mmHg 83%
23:00 +8°C° 0 mm 3 mps 752 mmHg 84%
Show more